Regional Weather Roundup
Issued by NWS

Home | Current Version | Previous Version | Text Only | Print | Product List | Glossary Off
Versions: 1 2 3 4 5 6 7 8 9 10 11 12 13 14 15 16 17 18 19 20 21 22 23 24 25 26 27 28 29 30 31 32 33 34 35 36 37 38 39 40 41 42 43 44 45 46 47 48 49 50

000
ASUS45 KSLC 190910
RWRUT

UTAH REGIONAL WEATHER ROUNDUP
NATIONAL WEATHER SERVICE SALT LAKE CITY UT
300 AM MDT SUN APR 19 2015

UTZ001>011-023>025-191000-

NORTHERN UTAH

CITY           SKY/WX    TMP DP  RH WIND       PRES   REMARKS
BRIGHAM CITY   CLEAR     52  28  40 W3        30.04S
HILL AFB       CLEAR     50  29  45 E9        30.04S
LOGAN          CLEAR     43  31  62 S6        30.07R
OGDEN          CLEAR     49  32  52 VRB3      30.03S
PROVO AIRPORT  CLEAR     50  34  53 SE6       30.05S
SALT LAKE CITY CLEAR     49  36  61 SE6       30.03S
VERNAL         CLOUDY    44  38  79 SE3       30.12S
WENDOVER       CLEAR     48  16  27 CALM      30.05F
HEBER CITY     CLEAR     36  28  75 SW3       30.09S
WEST JORDAN    CLEAR     48  34  57 E5        30.05S

$$

UTZ012>022-026-027-191000-

SOUTHERN/CENTRAL UTAH

CITY           SKY/WX    TMP DP  RH WIND       PRES   REMARKS
BLANDING       CLEAR     40  35  82 N8        30.12F WCI  35
BRYCE CANYON   PTCLDY    29  20  69 W9        30.16S WCI  20
CEDAR CITY     CLEAR     41  20  43 CALM      30.07S
DELTA          CLEAR     43  22  43 NW8       30.05F
HANKSVILLE     CLOUDY    46  41  81 N3        30.10S
MILFORD        CLEAR     38  23  55 S6        30.06S WCI  33
MOAB/CYNLANDS  CLEAR     43  40  89 CALM      30.06S
PRICE          CLEAR     41  31  67 N9        30.10F
ST GEORGE      SUNNY     61  18  18 SE6       29.97S
KANAB          MOCLDY    39  21  48 NE5       30.08S

$$

REGIONAL REPORTS     COLORADO/ARIZONA

CITY           SKY/WX    TMP DP  RH WIND       PRES   REMARKS
CRAIG, CO      CLOUDY    35  32  88 W3        30.12R
GRAND JUNCTION PTCLDY    34  34 100 SE3       30.09F
RIFLE          FOG       33  31  92 SE6       30.12R VSB 1/4 WCI  28
MONTROSE       CLOUDY    35  35 100 CALM      30.12R
CORTEZ         CLEAR     35  32  88 SE7       30.05S WCI  29
PAGE, AZ       MOCLDY    55  22  27 CALM      30.02R
GRAND CANYON   CLEAR     27  13  55 CALM      30.11F
KINGMAN        CLEAR     48  16  27 SE7       29.96S
FLAGSTAFF      CLEAR     37  14  38 CALM      30.12S

$$

REGIONAL REPORTS    NEVADA/IDAHO/WYOMING

CITY           SKY/WX    TMP DP  RH WIND       PRES   REMARKS
LAS VEGAS, NV  PTCLDY    70  14  11 S6        29.83F
ELY            CLEAR     31  10  41 S5        30.14S WCI  26
ELKO           PTCLDY    32  17  54 CALM      30.13F
POCATELLO, ID  CLEAR     39  29  67 NE3       30.12S
BURLEY         CLEAR     43  31  62 NE3       30.10R
EVANSTON, WY   CLEAR     38  30  73 NE13      30.13S WCI  30
ROCK SPRINGS   CLOUDY    33  29  85 E13       30.18S WCI  24
KEMMERER       CLOUDY    36  32  87 SE9       30.17R WCI  29

$$



USA.gov is the U.S. government's official web portal to all federal, state and local government web resources and services.